Findlay, OH

4:15 PM EDT on April 23, 2017 (GMT -0400)
Findlay

Weather History for KFDY - December, 2011

Change the Weather History Date:

Saturday, December 31, 2011

  Actual Average Record
Temperature  
Mean Temperature 40 °F -  
Max Temperature 42 °F 32 °F 63 °F (1951)
Min Temperature 37 °F 19 °F -17 °F (1976)
Degree Days  
Heating Degree Days 24    
Moisture  
Dew Point 37 °F    
Average Humidity 88    
Maximum Humidity 100    
Minimum Humidity 79    
Precipitation  
Precipitation 0.00 in - - ()
Sea Level Pressure  
Sea Level Pressure 29.89 in    
Wind  
Wind Speed 12 mph (WSW)    
Max Wind Speed 16 mph    
Max Gust Speed 22 mph    
Visibility 8 miles    
Events      
Averages and records for this station are not official NWS values.
T = Trace of Precipitation, MM = Missing Value Source: NWS Daily Summary

Daily Weather History Graph

Daily Weather History Graph

Search for Another Location

Airport or City:

Trip Planner

Search our weather history database for the weather conditions in past years. The results will help you decide how hot, cold, wet, or windy it might be!

Date:

Astronomy

Dec. 31, 2011 Rise Set
Actual Time 7:59 AM EST 5:15 PM EST
Civil Twilight 7:28 AM EST 5:46 PM EST
Nautical Twilight 6:53 AM EST 6:21 PM EST
Astronomical Twilight 6:20 AM EST 6:54 PM EST
Moon 11:40 AM EST (12/31) No Moon Set
Length of Visible Light 10h 18m
Length of Day
9h 16m
Waxing Crescent, 45% of the Moon is Illuminated
Dec 31
Waxing Crescent
Jan 1
First Quarter
Jan 9
Full
Jan 16
Last Quarter
Jan 23
New

Hourly Weather History & Observations

Time (EST) Temp. Windchill Dew Point Humidity Pressure Visibility Wind Dir Wind Speed Gust Speed Precip Events Conditions
12:39 AM 42.8 °F 36.2 °F 37.4 °F 81% 29.66 in 10.0 mi WSW 12.7 mph - N/A   Overcast
12:53 AM 42.1 °F 35.7 °F 37.9 °F 85% 29.66 in 10.0 mi WSW 11.5 mph - N/A   Overcast
1:13 AM 42.8 °F 35.4 °F 37.4 °F 81% 29.66 in 10.0 mi WSW 15.0 mph 20.7 mph N/A   Overcast
1:49 AM 41.0 °F 34.3 °F 37.4 °F 87% 29.67 in 10.0 mi WSW 11.5 mph 20.7 mph N/A   Overcast
1:53 AM 39.9 °F 32.5 °F 37.0 °F 89% 29.68 in 10.0 mi SW 12.7 mph 19.6 mph N/A   Overcast
2:31 AM 39.2 °F 31.2 °F 35.6 °F 87% 29.70 in 10.0 mi WSW 13.8 mph 20.7 mph N/A   Overcast
2:53 AM 39.9 °F 31.8 °F 36.0 °F 86% 29.71 in 9.0 mi WSW 15.0 mph - N/A   Overcast
3:30 AM 39.2 °F 32.5 °F 37.4 °F 93% 29.72 in 10.0 mi WSW 10.4 mph 19.6 mph 0.00 in   Overcast
3:53 AM 39.0 °F 31.0 °F 37.0 °F 93% 29.73 in 10.0 mi WSW 13.8 mph - 0.00 in   Overcast
4:02 AM 39.2 °F 31.2 °F 37.4 °F 93% 29.73 in 10.0 mi WSW 13.8 mph - N/A   Overcast
5:18 AM 39.2 °F 30.8 °F 37.4 °F 93% 29.77 in 6.0 mi West 15.0 mph - N/A   Overcast
5:45 AM 39.2 °F 30.5 °F 37.4 °F 93% 29.79 in 2.5 mi West 16.1 mph 21.9 mph N/A   Overcast
6:35 AM 39.2 °F 31.2 °F 39.2 °F 100% 29.82 in 2.0 mi West 13.8 mph - N/A   Overcast
6:45 AM 39.2 °F 32.5 °F 39.2 °F 100% 29.83 in 1.8 mi West 10.4 mph - N/A   Overcast
6:53 AM 39.9 °F 32.5 °F 39.0 °F 97% 29.84 in 2.0 mi West 12.7 mph - N/A   Overcast
7:26 AM 39.2 °F 32.5 °F 37.4 °F 93% 29.87 in 6.0 mi NW 10.4 mph - N/A   Overcast
7:45 AM 39.2 °F 32.0 °F 37.4 °F 93% 29.88 in 9.0 mi WNW 11.5 mph - N/A   Overcast
7:53 AM 39.0 °F 31.0 °F 37.0 °F 93% 29.89 in 9.0 mi WNW 13.8 mph 19.6 mph N/A   Overcast
8:32 AM 39.2 °F 33.6 °F 35.6 °F 87% 29.92 in 9.0 mi WNW 8.1 mph - N/A   Overcast
8:39 AM 39.2 °F 31.6 °F 35.6 °F 87% 29.93 in 8.0 mi West 12.7 mph - N/A   Overcast
8:53 AM 39.0 °F 33.4 °F 36.0 °F 89% 29.94 in 7.0 mi West 8.1 mph - N/A   Overcast
9:20 AM 39.2 °F 33.6 °F 35.6 °F 87% 29.94 in 7.0 mi WNW 8.1 mph - N/A   Overcast
9:53 AM 39.0 °F 34.8 °F 36.0 °F 89% 29.96 in 8.0 mi WNW 5.8 mph - N/A   Overcast
10:51 AM 39.2 °F 33.0 °F 35.6 °F 87% 30.00 in 7.0 mi WNW 9.2 mph - N/A   Overcast
11:11 AM 39.2 °F 34.2 °F 37.4 °F 93% 29.99 in 7.0 mi West 6.9 mph - N/A   Overcast
11:53 AM 39.9 °F 32.9 °F 37.0 °F 89% 30.01 in 8.0 mi West 11.5 mph - N/A   Overcast
12:53 PM 39.9 °F 33.9 °F 37.0 °F 89% 30.01 in 8.0 mi West 9.2 mph - N/A   Overcast
1:53 PM 42.1 °F 36.6 °F 37.0 °F 82% 30.00 in 8.0 mi WSW 9.2 mph - N/A   Overcast
2:53 PM 42.1 °F 38.4 °F 37.9 °F 85% 29.99 in 9.0 mi West 5.8 mph - N/A   Overcast
3:12 PM 42.8 °F 39.3 °F 37.4 °F 81% 29.99 in 9.0 mi WSW 5.8 mph - N/A   Overcast
3:53 PM 42.1 °F 37.7 °F 37.0 °F 82% 30.01 in 10.0 mi SW 6.9 mph - N/A   Overcast
4:53 PM 41.0 °F 37.1 °F 37.0 °F 86% 30.02 in 10.0 mi SSW 5.8 mph - N/A   Overcast
5:53 PM 41.0 °F 34.3 °F 35.1 °F 79% 30.04 in 10.0 mi SSW 11.5 mph - N/A   Overcast
6:53 PM 39.9 °F 33.9 °F 35.1 °F 83% 30.04 in 10.0 mi SSW 9.2 mph - N/A   Overcast
7:53 PM 39.9 °F 32.5 °F 35.1 °F 83% 30.04 in 10.0 mi South 12.7 mph - N/A   Overcast
8:35 PM 39.2 °F 31.2 °F 35.6 °F 87% 30.03 in 10.0 mi South 13.8 mph - N/A   Overcast
8:53 PM 39.9 °F 32.5 °F 35.1 °F 83% 30.02 in 10.0 mi South 12.7 mph - N/A   Overcast
9:53 PM 39.9 °F - 36.0 °F 86% 30.01 in 10.0 mi North - - N/A   Overcast
10:53 PM 39.0 °F - 35.1 °F 86% 30.00 in 10.0 mi North - - N/A   Mostly Cloudy
11:09 PM 37.4 °F 30.3 °F 35.6 °F 93% 29.98 in 10.0 mi South 10.4 mph - N/A   Scattered Clouds